Weather in Serebryansk

Kazakhstan     49°40′46″N   83°18′02″E
temp.,
°C
wind,
m/s
gust,
m/s
humid.,
%
clouds,
%
prec.,
mm/h
press.,
hPa
HPBL,
m
28 june, tue
tue2800:00+15wnw6109899 1.3 1007688
03:00+13wnw469787 0.5 1008431
06:00+12wnw339839 0.6 1009155
09:00+16wnw45670 0.0 1010760
12:00+20wnw55490 0.0 10091215
15:00+21wnw56460 0.0 10081406
18:00+20wnw56570 0.0 1008765
21:00+14nnw22710 0.0 100911
29 june, wed
wed2900:00+11ene11750 0.0 100911
03:00+11ese33770 0.0 100920
06:00+13ese34800 0.0 100899
09:00+18ese46610 0.0 1007420
12:00+22ese5752100 0.0 1005615
15:00+25ese6104358 0.0 1001989
18:00+24ese586096 0.0 997259
21:00+17ese327537 0.1 99823
30 june, thu
thu3000:00+19e3357100 0.1 99826
03:00+15wnw3587100 0.0 1001160
06:00+13wnw3593100 0.0 1004351
09:00+14w2184100 0.3 1005365
12:00+17ese3482100 1.1 1004394
15:00+19se3478100 0.9 1004435
18:00+16ese2397100 4.1 1004147
21:00+15se2197100 1.3 100430
1 july, fri
fri100:00+13e119787 2.3 100311
03:00+12e11945 0.2 100310
06:00+13wnw119795 1.3 100474
09:00+17wnw118785 1.6 1004481
12:00+18wnw228198 1.9 1004635
15:00+20w346818 0.3 10041017
18:00+20nw78580 0.3 1004951
21:00+13wnw33710 0.0 100829
2 july, sat
sat200:00+9nw22800 0.0 100915
03:00+9nw11780 0.0 100911
06:00+12ne11730 0.0 100828
09:00+17ese115289 0.0 1008507
12:00+20ese2244100 0.0 1006969
15:00+21ese3446100 0.0 1004778
18:00+20ese4860100 0.0 1001536
21:00+15ese3467100 0.0 100047